Hourly Data Report for October 05, 2017

All times are specified in Local Standard Time (LST). Add 1 hour to adjust for Daylight Saving Time where and when it is observed.

HAY RIVER A
NORTHWEST TERRITORIES

60°50'23.000" N
115°46'58.000" W
164.90 m
2202401
71935
YHY

Download Data

Hourly Data (October 2017)
Hourly Data Report for October 5, 2017
Temp Definition
°C
Dew Point Temp Definition
°C
Rel Hum Definition
%
Wind Dir Definition
10's deg

Wind Spd Definition
km/h
Visibility Definition
km
Stn Press Definition
kPa
Hmdx Definition


Wind Chill Definition


Weather Definition


TIME
00:00 Legend Double Dagger 5.1 2.5 84 9 9 24.1 99.57     LegendNANA
01:00 Legend Double Dagger 4.0 2.0 87 9 12 24.1 99.52     LegendNANA
02:00 Legend Double Dagger 3.4 1.6 88 10 10 24.1 99.48     Mainly Clear
03:00 Legend Double Dagger 2.6 1.3 91 10 12 24.1 99.39     LegendNANA
04:00 Legend Double Dagger 2.1 1.0 92 10 12 24.1 99.31     LegendNANA
05:00 Legend Double Dagger 1.8 0.9 94 10 13 24.1 99.22     Mostly Cloudy
06:00 Legend Double Dagger 1.6 0.7 94 12 9 24.1 99.10     LegendNANA
07:00 Legend Double Dagger 1.4 0.8 95 11 10 24.1 99.05     LegendNANA
08:00 Legend Double Dagger 2.7 1.5 92 12 12 24.1 98.94     Mostly Cloudy
09:00 Legend Double Dagger 5.0 2.7 85 15 15 24.1 98.83     LegendNANA
10:00 Legend Double Dagger 8.9 4.1 71 14 17 24.1 98.68     LegendNANA
11:00 Legend Double Dagger 11.7 4.5 61 18 18 24.1 98.55     Mostly Cloudy
12:00 Legend Double Dagger 14.2 5.4 55 18 18 24.1 98.42     LegendNANA
13:00 Legend Double Dagger 14.7 5.7 55 16 16 24.1 98.25     LegendNANA
14:00 Legend Double Dagger 15.9 6.3 53 19 10 24.1 98.20     Mostly Cloudy
15:00 Legend Double Dagger 15.9 7.3 57 16 8 24.1 98.09     LegendNANA
16:00 Legend Double Dagger 12.2 7.0 70 34 9 24.1 98.07     LegendNANA
17:00 Legend Double Dagger 11.9 8.0 77 36 1 24.1 97.99     Mostly Cloudy
18:00 Legend Double Dagger 9.2 6.3 82 16 7 24.1 97.88     LegendNANA
19:00 Legend Double Dagger 9.0 6.1 82 36 2 24.1 97.81     LegendNANA
20:00 Legend Double Dagger 9.2 5.5 77 24 12 24.1 97.73     Mainly Clear
21:00 Legend Double Dagger 8.4 3.3 70 24 15 24.1 97.65     LegendNANA
22:00 Legend Double Dagger 10.3 2.4 58 24 14 24.1 97.57     LegendNANA
23:00 Legend Double Dagger 10.2 2.0 56 24 15 24.1 97.49     Mainly Clear

Notes on Data Quality.

Legend

  • E = Estimated
  • M = Missing
  • NA = Not Available
  • ‡ = Partner data that is not subject to review by the National Climate Archives
Date modified: